Location: ??
(35.5052°N, 139.7262°E)
Time: 21:48:55
(UTC+00:00)

N. Korean satellite - Pass Details

Date: 01 October 2021
Orbit: 450 x 495 km, 97.3° (Epoch: 23 October)

Event Time Altitude Azimuth Distance (km) Brightness Sun altitude
Rises 19:34:14 0° 18° (NNE) 2,553 10.6 -13.5°
Reaches altitude 10° 19:36:21 10° 25° (NNE) 1,676 9.7 -13.1°
Maximum altitude 19:39:50 45° 99° (E) 675 7.8 -12.4°
Drops below altitude 10° 19:43:19 10° 173° (S) 1,680 9.3 -11.7°
Sets 19:45:26 0° 180° (S) 2,561 10.2 -11.2°
